Cozumel, Mexico

5:01 PM EST on July 25, 2017 (GMT -0500)
Cozumel

Weather History for MMCZ - October, 2014

Change the Weather History Date:

Friday, October 17, 2014

  Actual Average Record
Temperature  
Mean Temperature 76 °F -  
Max Temperature 82 °F 84 °F 89 °F (1999)
Min Temperature 71 °F 74 °F 64 °F (2013)
Cooling Degree Days 12    
Growing Degree Days 26 (Base 50)    
Moisture  
Dew Point 74 °F    
Average Humidity 96    
Maximum Humidity 100    
Minimum Humidity 79    
Precipitation  
Precipitation 0.45 in - - ()
Sea Level Pressure  
Sea Level Pressure 29.94 in    
Wind  
Wind Speed 3 mph ()    
Max Wind Speed 9 mph    
Max Gust Speed -    
Visibility 7.0 miles    
Events Rain    
Averages and records for this station are not official NWS values.
T = Trace of Precipitation, MM = Missing Value Source: Averaged Metar Reports

Daily Weather History Graph

Daily Weather History Graph

Search for Another Location

Airport or City:

Trip Planner

Search our weather history database for the weather conditions in past years. The results will help you decide how hot, cold, wet, or windy it might be!

Date:

Astronomy

Oct. 17, 2014 Rise Set
Actual Time 6:43 AM CDT 6:22 PM CDT
Civil Twilight 6:21 AM CDT 6:44 PM CDT
Nautical Twilight 5:55 AM CDT 7:10 PM CDT
Astronomical Twilight 5:29 AM CDT 7:36 PM CDT
Moon 1:29 AM CDT (10/17) 2:29 PM CDT (10/17)
Length of Visible Light 12h 23m
Length of Day
11h 38m
Waning Crescent, 32% of the Moon is Illuminated
Oct 17
Waning Crescent
Oct 23
New
Oct 30
First Quarter
Nov 6
Full
Nov 14
Last Quarter

Hourly Weather History & Observations

Time (CDT) Temp. Heat Index Dew Point Humidity Pressure Visibility Wind Dir Wind Speed Gust Speed Precip Events Conditions
12:45 AM 71.6 °F - 71.6 °F 100% 29.96 in 6.0 mi Calm Calm - N/A   Mostly Cloudy
1:41 AM 73.4 °F - 73.4 °F 100% 29.95 in 6.0 mi NNE 3.5 mph - N/A   Mostly Cloudy
2:43 AM 71.6 °F - 71.6 °F 100% 29.90 in 6.0 mi Calm Calm - N/A   Mostly Cloudy
3:43 AM 71.6 °F - 71.6 °F 100% 29.94 in 6.0 mi Calm Calm - N/A   Scattered Clouds
4:43 AM 71.6 °F - 71.6 °F 100% 29.93 in 5.0 mi ENE 6.9 mph - N/A Rain Light Rain
5:44 AM 71.6 °F - 71.6 °F 100% 29.94 in 5.0 mi ENE 3.5 mph - N/A Rain Light Rain
6:45 AM 71.6 °F - 71.6 °F 100% 29.94 in 6.0 mi East 5.8 mph - N/A   Overcast
7:43 AM 71.6 °F - 71.6 °F 100% 29.97 in 8.0 mi ESE 4.6 mph - N/A   Overcast
8:43 AM 71.6 °F - 71.6 °F 100% 29.97 in 6.0 mi ESE 9.2 mph - N/A   Overcast
9:50 AM 73.4 °F - 73.4 °F 100% 30.01 in 8.0 mi Calm Calm - N/A   Mostly Cloudy
10:49 AM 77.0 °F - 73.4 °F 89% 29.99 in 8.0 mi NNE 3.5 mph - N/A   Mostly Cloudy
11:42 AM 78.8 °F - 75.2 °F 89% 29.98 in 8.0 mi NE 5.8 mph - N/A   Mostly Cloudy
12:40 PM 78.8 °F - 75.2 °F 89% 29.94 in 8.0 mi NE 4.6 mph - N/A   Mostly Cloudy
1:43 PM 82.4 °F 89.5 °F 75.2 °F 79% 29.93 in 8.0 mi NE 5.8 mph - N/A   Mostly Cloudy
2:44 PM 82.4 °F 89.5 °F 75.2 °F 79% 29.91 in 8.0 mi ENE 9.2 mph - N/A   Mostly Cloudy
3:40 PM 80.6 °F 86.2 °F 75.2 °F 84% 29.93 in 8.0 mi East 9.2 mph - N/A   Mostly Cloudy
4:46 PM 78.8 °F - 75.2 °F 89% 29.89 in 8.0 mi ENE 8.1 mph - N/A   Mostly Cloudy
5:41 PM 77.0 °F - 75.2 °F 94% 29.90 in 8.0 mi ENE 3.5 mph - N/A   Mostly Cloudy
6:46 PM 75.2 °F - 75.2 °F 100% 29.90 in 7.0 mi ESE 4.6 mph - N/A   Overcast
7:45 PM 75.2 °F - 75.2 °F 100% 29.93 in 7.0 mi Calm Calm - N/A   Overcast
8:41 PM 75.2 °F - 75.2 °F 100% 29.95 in 7.0 mi ESE 3.5 mph - N/A   Overcast
9:42 PM 75.2 °F - 75.2 °F 100% 29.99 in 7.0 mi East 3.5 mph - N/A   Overcast
10:40 PM 75.2 °F - 75.2 °F 100% 29.97 in 7.0 mi Calm Calm - N/A   Overcast
11:40 PM 73.4 °F - 73.4 °F 100% 29.96 in 7.0 mi East 3.5 mph - N/A   Overcast